Location: Overspoor
(51.4747°N, 5.6641°E)
Time: 22:16:10
(UTC+02:00)

RS-15 - Pass Details

Date: 05 July 2022
Orbit: 1881 x 2163 km, 64.8° (Epoch: 15 August)

Event Time Altitude Azimuth Distance (km) Brightness Sun altitude
Rises 03:43:56 0° 316° (NW) 5,695 10.7 -11.0°
Reaches altitude 10° 03:51:52 10° 285° (WNW) 4,650 9.8 -10.4°
Maximum altitude 03:54:08 11° 273° (W) 4,573 9.7 -10.3°
Drops below altitude 10° 03:56:24 10° 262° (W) 4,615 9.6 -10.1°
Enters shadow 04:01:19 - 240° (WSW) 5,077 9.7 -9.7°
